Location: Aula-Vintri
(58.3875°N, 22.4322°E)
Time: 11:48:01
(UTC+00:00)

Cosmos 1125 Rocket - Pass Details

Date: 13 October 2019
Orbit: 758 x 780 km, 74.0° (Epoch: 19 November)

Event Time Altitude Azimuth Distance (km) Brightness Sun altitude
Rises 18:51:33 0° 327° (NNW) 3,276 7.8 -26.2°
Reaches altitude 10° 18:54:08 10° 335° (NNW) 2,343 6.7 -26.5°
Enters shadow 18:58:39 37° 32° (NNE) 1,198 4.4 -27.0°
